Check out our new BloomSky Weather System.

Active alerts


No alerts


Thunder radar  blitzortung!


Rain radar more information rain snow radar


Visit our other weather sites:

Template documentation
and downloads

And another site



Weather Underground History page Text

Daily Summary for November 22, 2017 Units:  English    Metric   Both
« Previous Day
Next Day »
Daily Weekly Monthly Yearly Custom
  High: Low: Average:
Temperature: TemperatureF °F 47.8 °F 58.1 °F
Dew Point: DewpointF °F 40.1 °F 49.8 °F
Humidity: Humidity % 55 % 74 %
Wind Speed: WindSpeedMPH mph 0.0 mph 2.8 mph
Wind Gust: WindSpeedGustMPH mph - -
Wind:- - West
Pressure: PressureIn in 30.06 in -
Precipitation: 0.00 in    
Historical Graphs
 
 
Tabular Data for November 22, 2017
Time Temperature Dew Point Pressure Wind Wind Speed Wind Gust Humidity Rainfall Rate (Hourly)
TemperatureF °F DewpointF °F PressureIn in Calm     Humidity % HourlyPrecipIn in
00:01 60.8 °F 57.6 °F 30.06 in North 1.0 mph 6.0 mph 89 % 0.00 in
00:06 60.6 °F 57.4 °F 30.07 in North 1.0 mph 6.0 mph 89 % 0.00 in
00:12 60.4 °F 57.6 °F 30.07 in North 1.0 mph 4.0 mph 90 % 0.00 in
00:17 60.3 °F 57.4 °F 30.07 in North 1.0 mph 6.0 mph 90 % 0.00 in
00:22 60.1 °F 57.2 °F 30.07 in North 5.0 mph 6.0 mph 90 % 0.00 in
00:27 60.1 °F 57.4 °F 30.07 in NNW 4.0 mph 6.0 mph 91 % 0.00 in
00:33 60.1 °F 57.4 °F 30.08 in Calm   7.0 mph 91 % 0.00 in
00:38 60.3 °F 57.6 °F 30.08 in NNW 2.0 mph 7.0 mph 91 % 0.00 in
00:43 60.3 °F 57.6 °F 30.07 in NNE 2.0 mph 7.0 mph 91 % 0.00 in
00:53 60.4 °F 57.6 °F 30.07 in ENE 3.0 mph 8.0 mph 90 % 0.00 in
00:58 60.3 °F 57.4 °F 30.07 in NE 4.0 mph 8.0 mph 90 % 0.00 in
01:03 60.3 °F 57.4 °F 30.08 in North 3.0 mph 8.0 mph 90 % 0.00 in
01:08 60.3 °F 57.4 °F 30.08 in NW 2.0 mph 6.0 mph 90 % 0.00 in
01:13 60.3 °F 57.4 °F 30.08 in NNW 2.0 mph 6.0 mph 90 % 0.00 in
01:18 60.3 °F 57.0 °F 30.08 in NNW 5.0 mph 6.0 mph 89 % 0.00 in
01:23 60.3 °F 57.0 °F 30.08 in NNW 1.0 mph 6.0 mph 89 % 0.00 in
01:33 60.1 °F 57.2 °F 30.09 in NNE 6.0 mph 6.0 mph 90 % 0.00 in
01:43 60.1 °F 57.2 °F 30.09 in NNE 6.0 mph 7.0 mph 90 % 0.00 in
01:53 59.9 °F 57.0 °F 30.09 in North 2.0 mph 9.0 mph 90 % 0.00 in
01:58 59.9 °F 57.0 °F 30.09 in NNE 8.0 mph 9.0 mph 90 % 0.00 in
02:03 59.9 °F 57.0 °F 30.09 in NW 3.0 mph 8.0 mph 90 % 0.00 in
02:08 59.9 °F 57.2 °F 30.09 in NW 4.0 mph 8.0 mph 91 % 0.00 in
02:18 59.7 °F 57.0 °F 30.10 in NNW 3.0 mph 9.0 mph 91 % 0.00 in
02:23 59.7 °F 57.0 °F 30.10 in NNW 4.0 mph 9.0 mph 91 % 0.00 in
02:28 59.5 °F 56.8 °F 30.10 in NW 4.0 mph 9.0 mph 91 % 0.00 in
02:33 59.5 °F 56.8 °F 30.10 in NNW 3.0 mph 9.0 mph 91 % 0.00 in
02:38 59.5 °F 56.8 °F 30.10 in WNW 4.0 mph 11.0 mph 91 % 0.00 in
02:43 59.4 °F 56.7 °F 30.10 in NW 1.0 mph 11.0 mph 91 % 0.00 in
02:53 59.4 °F 56.7 °F 30.11 in NNW 1.0 mph 11.0 mph 91 % 0.00 in
02:58 59.4 °F 56.7 °F 30.11 in WNW 1.0 mph 9.0 mph 91 % 0.00 in
03:58 59.5 °F 56.7 °F 30.12 in NW 3.0 mph 7.0 mph 90 % 0.00 in
04:03 59.5 °F 56.7 °F 30.12 in NNW 4.0 mph 8.0 mph 90 % 0.00 in
04:06 59.5 °F 56.7 °F 30.12 in NW 2.0 mph 8.0 mph 90 % 0.00 in
04:11 59.5 °F 56.7 °F 30.12 in NW 1.0 mph 8.0 mph 90 % 0.00 in
04:16 59.4 °F 56.5 °F 30.12 in North 2.0 mph 8.0 mph 90 % 0.00 in
04:21 59.2 °F 56.3 °F 30.12 in NNW 1.0 mph 7.0 mph 90 % 0.00 in
04:26 59.2 °F 56.3 °F 30.12 in NNW 4.0 mph 9.0 mph 90 % 0.00 in
04:37 58.8 °F 55.9 °F 30.13 in NNW 1.0 mph 9.0 mph 90 % 0.00 in
04:42 58.6 °F 55.8 °F 30.13 in NNW 1.0 mph 8.0 mph 90 % 0.00 in
04:47 58.6 °F 55.8 °F 30.13 in NNW 2.0 mph 8.0 mph 90 % 0.00 in
04:52 58.6 °F 55.8 °F 30.13 in North 5.0 mph 8.0 mph 90 % 0.00 in
04:57 58.5 °F 55.6 °F 30.13 in NW 4.0 mph 7.0 mph 90 % 0.00 in
05:02 58.5 °F 55.6 °F 30.14 in NNW 2.0 mph 7.0 mph 90 % 0.00 in
05:07 58.3 °F 55.4 °F 30.14 in NW 1.0 mph 7.0 mph 90 % 0.00 in
05:12 58.1 °F 55.2 °F 30.14 in North 1.0 mph 7.0 mph 90 % 0.00 in
05:17 57.9 °F 55.0 °F 30.14 in Calm   6.0 mph 90 % 0.00 in
06:03 57.2 °F 54.7 °F 30.17 in NNW 1.0 mph 6.0 mph 91 % 0.00 in
06:08 57.0 °F 54.5 °F 30.17 in North 3.0 mph 7.0 mph 91 % 0.00 in
06:13 57.0 °F 54.5 °F 30.17 in North 1.0 mph 7.0 mph 91 % 0.00 in
06:18 57.0 °F 54.7 °F 30.17 in NW 1.0 mph 7.0 mph 92 % 0.00 in
06:23 57.0 °F 54.7 °F 30.18 in North 5.0 mph 6.0 mph 92 % 0.00 in
06:33 57.0 °F 54.7 °F 30.19 in NNW 4.0 mph 10.0 mph 92 % 0.00 in
06:38 57.2 °F 54.9 °F 30.19 in WNW 3.0 mph 10.0 mph 92 % 0.00 in
06:53 57.4 °F 54.9 °F 30.19 in NW 5.0 mph 12.0 mph 91 % 0.00 in
06:58 57.2 °F 54.7 °F 30.19 in North 3.0 mph 12.0 mph 91 % 0.00 in
07:03 57.2 °F 54.7 °F 30.19 in NNW 4.0 mph 11.0 mph 91 % 0.00 in
07:08 57.0 °F 54.5 °F 30.19 in NW 2.0 mph 11.0 mph 91 % 0.00 in
07:13 57.0 °F 54.5 °F 30.20 in NNW 4.0 mph 11.0 mph 91 % 0.00 in
07:18 57.0 °F 54.1 °F 30.20 in NNW 1.0 mph 14.0 mph 90 % 0.00 in
07:23 57.0 °F 54.1 °F 30.21 in NW 2.0 mph 14.0 mph 90 % 0.00 in
07:28 57.0 °F 53.8 °F 30.21 in NW 3.0 mph 14.0 mph 89 % 0.00 in
07:33 57.0 °F 53.8 °F 30.21 in NW 2.0 mph 14.0 mph 89 % 0.00 in
07:43 57.0 °F 53.4 °F 30.22 in WNW 8.0 mph 15.0 mph 88 % 0.00 in
07:53 57.2 °F 53.1 °F 30.22 in NE 3.0 mph 15.0 mph 86 % 0.00 in
07:58 57.4 °F 53.2 °F 30.22 in North 4.0 mph 11.0 mph 86 % 0.00 in
08:08 57.7 °F 53.2 °F 30.22 in NNW 6.0 mph 11.0 mph 85 % 0.00 in
08:13 57.7 °F 52.7 °F 30.22 in NW 3.0 mph 10.0 mph 83 % 0.00 in
08:18 57.9 °F 52.7 °F 30.23 in NW 2.0 mph 11.0 mph 83 % 0.00 in
08:23 57.9 °F 52.7 °F 30.23 in NNW 8.0 mph 12.0 mph 83 % 0.00 in
08:28 58.3 °F 52.9 °F 30.23 in West 10.0 mph 12.0 mph 82 % 0.00 in
08:33 58.3 °F 52.9 °F 30.23 in NE 4.0 mph 14.0 mph 82 % 0.00 in
08:34 58.3 °F 52.9 °F 30.23 in NNE 1.0 mph 14.0 mph 82 % 0.00 in
08:39 58.5 °F 52.7 °F 30.23 in North 5.0 mph 14.0 mph 81 % 0.00 in
08:49 59.0 °F 52.5 °F 30.24 in North 4.0 mph 14.0 mph 79 % 0.00 in
08:59 59.4 °F 52.9 °F 30.24 in NNW 6.0 mph 11.0 mph 79 % 0.00 in
09:04 59.5 °F 53.1 °F 30.24 in ENE 2.0 mph 11.0 mph 79 % 0.00 in
09:09 59.7 °F 52.5 °F 30.24 in North 4.0 mph 11.0 mph 77 % 0.00 in
09:14 60.3 °F 53.1 °F 30.25 in NW 3.0 mph 11.0 mph 77 % 0.00 in
09:24 60.4 °F 52.9 °F 30.25 in NW 3.0 mph 11.0 mph 76 % 0.00 in
09:31 60.4 °F 52.9 °F 30.25 in North 3.0 mph 14.0 mph 76 % 0.00 in
09:36 60.6 °F 52.7 °F 30.25 in NNW 7.0 mph 14.0 mph 75 % 0.00 in
09:41 61.0 °F 53.1 °F 30.25 in NNW 2.0 mph 14.0 mph 75 % 0.00 in
09:46 61.2 °F 52.9 °F 30.25 in WNW 5.0 mph 13.0 mph 74 % 0.00 in
09:51 61.5 °F 52.7 °F 30.25 in North 4.0 mph 10.0 mph 73 % 0.00 in
09:56 61.7 °F 52.5 °F 30.25 in NW 2.0 mph 10.0 mph 72 % 0.00 in
10:01 61.9 °F 53.1 °F 30.25 in NNW 3.0 mph 10.0 mph 73 % 0.00 in
10:06 62.2 °F 52.7 °F 30.25 in NNW 8.0 mph 11.0 mph 71 % 0.00 in
10:16 62.1 °F 52.2 °F 30.25 in NW 5.0 mph 14.0 mph 70 % 0.00 in
10:21 61.9 °F 52.0 °F 30.25 in NW 5.0 mph 14.0 mph 70 % 0.00 in
10:31 62.4 °F 52.2 °F 30.25 in North 5.0 mph 11.0 mph 69 % 0.00 in
10:36 62.4 °F 52.2 °F 30.25 in NNE 5.0 mph 10.0 mph 69 % 0.00 in
10:41 62.8 °F 52.0 °F 30.25 in North 6.0 mph 10.0 mph 68 % 0.00 in
10:46 63.0 °F 52.2 °F 30.25 in NE 7.0 mph 10.0 mph 68 % 0.00 in
10:51 63.0 °F 51.4 °F 30.24 in NNW 3.0 mph 10.0 mph 66 % 0.00 in
11:06 63.9 °F 52.3 °F 30.24 in NW 3.0 mph 10.0 mph 66 % 0.00 in
11:11 63.9 °F 51.4 °F 30.23 in NW 6.0 mph 9.0 mph 64 % 0.00 in
11:16 63.7 °F 52.2 °F 30.23 in NW 6.0 mph 10.0 mph 66 % 0.00 in
11:21 63.9 °F 51.8 °F 30.23 in NNW 3.0 mph 10.0 mph 65 % 0.00 in
11:26 64.0 °F 51.6 °F 30.23 in North 3.0 mph 10.0 mph 64 % 0.00 in
11:31 64.4 °F 52.0 °F 30.23 in NW 3.0 mph 10.0 mph 64 % 0.00 in
11:36 64.6 °F 51.6 °F 30.23 in NNE 4.0 mph 10.0 mph 63 % 0.00 in
11:41 64.0 °F 51.6 °F 30.22 in NNE 3.0 mph 12.0 mph 64 % 0.00 in
11:51 64.8 °F 52.3 °F 30.21 in NW 2.0 mph 12.0 mph 64 % 0.00 in
11:56 65.1 °F 52.2 °F 30.21 in NNW 7.0 mph 9.0 mph 63 % 0.00 in
12:01 65.3 °F 52.3 °F 30.21 in NW 5.0 mph 9.0 mph 63 % 0.00 in
12:06 65.1 °F 52.2 °F 30.21 in North 5.0 mph 12.0 mph 63 % 0.00 in
13:45 66.9 °F 51.6 °F 30.16 in NNW 4.0 mph 12.0 mph 58 % 0.00 in
13:50 66.4 °F 51.6 °F 30.16 in Calm   12.0 mph 59 % 0.00 in
13:55 66.4 °F 52.2 °F 30.16 in West 1.0 mph 12.0 mph 60 % 0.00 in
14:00 66.6 °F 51.8 °F 30.16 in WNW 3.0 mph 11.0 mph 59 % 0.00 in
14:11 65.8 °F 51.1 °F 30.16 in NNW 4.0 mph 13.0 mph 59 % 0.00 in
14:16 66.0 °F 50.9 °F 30.16 in NNW 4.0 mph 14.0 mph 58 % 0.00 in
14:21 65.8 °F 51.1 °F 30.16 in NW 4.0 mph 14.0 mph 59 % 0.00 in
14:31 65.8 °F 51.1 °F 30.16 in NW 7.0 mph 14.0 mph 59 % 0.00 in
14:36 65.7 °F 50.9 °F 30.16 in NNW 6.0 mph 14.0 mph 59 % 0.00 in
14:41 65.8 °F 51.1 °F 30.17 in NW 5.0 mph 13.0 mph 59 % 0.00 in
14:46 65.8 °F 50.7 °F 30.16 in NW 7.0 mph 13.0 mph 58 % 0.00 in
14:51 65.8 °F 51.1 °F 30.17 in North 10.0 mph 13.0 mph 59 % 0.00 in
14:56 66.0 °F 50.9 °F 30.17 in WNW 8.0 mph 13.0 mph 58 % 0.00 in
15:01 65.5 °F 49.8 °F 30.17 in NNE 6.0 mph 15.0 mph 57 % 0.00 in
15:16 65.5 °F 49.8 °F 30.17 in NNW 6.0 mph 14.0 mph 57 % 0.00 in
15:27 64.9 °F 48.9 °F 30.17 in NNW 7.0 mph 12.0 mph 56 % 0.00 in
15:32 64.8 °F 49.1 °F 30.17 in NNW 6.0 mph 12.0 mph 57 % 0.00 in
15:42 64.2 °F 47.7 °F 30.17 in NW 5.0 mph 13.0 mph 55 % 0.00 in
15:52 63.9 °F 47.8 °F 30.17 in North 3.0 mph 15.0 mph 56 % 0.00 in
15:57 63.7 °F 47.7 °F 30.18 in NW 7.0 mph 15.0 mph 56 % 0.00 in
16:02 63.7 °F 47.7 °F 30.18 in NNW 7.0 mph 15.0 mph 56 % 0.00 in
16:07 63.5 °F 47.5 °F 30.18 in NNW 13.0 mph 15.0 mph 56 % 0.00 in
16:12 63.3 °F 46.9 °F 30.18 in North 6.0 mph 15.0 mph 55 % 0.00 in
16:17 63.3 °F 46.9 °F 30.19 in NNW 6.0 mph 15.0 mph 55 % 0.00 in
16:27 63.0 °F 46.9 °F 30.19 in NW 5.0 mph 14.0 mph 56 % 0.00 in
16:32 62.8 °F 46.9 °F 30.19 in NW 3.0 mph 14.0 mph 56 % 0.00 in
16:37 62.6 °F 46.8 °F 30.19 in NW 5.0 mph 11.0 mph 56 % 0.00 in
16:42 62.4 °F 46.6 °F 30.19 in North 5.0 mph 10.0 mph 56 % 0.00 in
16:47 62.2 °F 46.4 °F 30.19 in North 4.0 mph 10.0 mph 56 % 0.00 in
16:52 61.9 °F 45.5 °F 30.19 in NW 3.0 mph 10.0 mph 55 % 0.00 in
16:57 61.7 °F 45.9 °F 30.19 in NNW 3.0 mph 11.0 mph 56 % 0.00 in
17:07 61.3 °F 45.5 °F 30.19 in NNW 5.0 mph 11.0 mph 56 % 0.00 in
17:17 61.0 °F 45.7 °F 30.20 in NNW 4.0 mph 9.0 mph 57 % 0.00 in
17:22 60.6 °F 45.7 °F 30.20 in NW 2.0 mph 9.0 mph 58 % 0.00 in
17:27 60.4 °F 45.7 °F 30.20 in NNW 1.0 mph 9.0 mph 58 % 0.00 in
17:32 60.1 °F 45.7 °F 30.20 in NW 2.0 mph 6.0 mph 59 % 0.00 in
17:37 59.7 °F 45.3 °F 30.21 in NNW 2.0 mph 8.0 mph 59 % 0.00 in
17:42 59.5 °F 45.7 °F 30.21 in NNW 1.0 mph 8.0 mph 60 % 0.00 in
17:47 59.4 °F 45.5 °F 30.21 in Calm   8.0 mph 60 % 0.00 in
17:57 58.6 °F 45.3 °F 30.21 in Calm   3.0 mph 61 % 0.00 in
18:13 57.7 °F 45.3 °F 30.22 in Calm   3.0 mph 63 % 0.00 in
18:18 57.6 °F 45.5 °F 30.22 in Calm   2.0 mph 64 % 0.00 in
18:23 57.4 °F 45.7 °F 30.22 in NW 1.0 mph 2.0 mph 65 % 0.00 in
18:33 57.0 °F 45.3 °F 30.22 in Calm   3.0 mph 65 % 0.00 in
18:38 56.8 °F 45.1 °F 30.22 in NNW 1.0 mph 3.0 mph 65 % 0.00 in
18:43 56.7 °F 45.5 °F 30.23 in NNW 1.0 mph 3.0 mph 66 % 0.00 in
18:44 56.7 °F 45.5 °F 30.22 in NW 1.0 mph 3.0 mph 66 % 0.00 in
18:49 56.5 °F 45.7 °F 30.22 in NW 1.0 mph 4.0 mph 67 % 0.00 in
18:54 56.3 °F 45.5 °F 30.23 in Calm   4.0 mph 67 % 0.00 in
18:59 56.1 °F 45.7 °F 30.23 in NNW 1.0 mph 4.0 mph 68 % 0.00 in
19:09 55.8 °F 45.3 °F 30.23 in Calm   2.0 mph 68 % 0.00 in
19:14 55.4 °F 45.3 °F 30.23 in Calm   2.0 mph 69 % 0.00 in
19:19 55.2 °F 45.1 °F 30.23 in Calm   2.0 mph 69 % 0.00 in
19:25 55.0 °F 45.1 °F 30.23 in NNE 2.0 mph 2.0 mph 69 % 0.00 in
19:30 55.0 °F 44.6 °F 30.23 in Calm   4.0 mph 68 % 0.00 in
19:45 54.7 °F 44.2 °F 30.23 in Calm   2.0 mph 68 % 0.00 in
19:50 54.5 °F 44.2 °F 30.23 in Calm   2.0 mph 68 % 0.00 in
19:55 54.3 °F 44.4 °F 30.23 in NNW 1.0 mph 1.0 mph 69 % 0.00 in
20:00 54.0 °F 44.1 °F 30.23 in Calm   1.0 mph 69 % 0.00 in
20:05 53.4 °F 43.5 °F 30.23 in Calm   1.0 mph 69 % 0.00 in
20:15 52.3 °F 43.5 °F 30.24 in Calm   1.0 mph 72 % 0.00 in
20:20 51.8 °F 43.3 °F 30.23 in Calm   1.0 mph 73 % 0.00 in
20:25 51.4 °F 43.5 °F 30.23 in Calm   1.0 mph 74 % 0.00 in
20:30 51.3 °F 43.5 °F 30.24 in Calm   1.0 mph 75 % 0.00 in
20:41 51.1 °F 43.7 °F 30.23 in Calm   1.0 mph 76 % 0.00 in
20:46 50.9 °F 43.5 °F 30.23 in Calm   1.0 mph 76 % 0.00 in
20:51 50.7 °F 43.5 °F 30.23 in Calm   1.0 mph 76 % 0.00 in
20:56 50.7 °F 43.5 °F 30.24 in Calm   1.0 mph 76 % 0.00 in
21:11 50.9 °F 43.3 °F 30.24 in Calm   1.0 mph 75 % 0.00 in
21:17 51.3 °F 43.3 °F 30.24 in NNW 1.0 mph 3.0 mph 74 % 0.00 in
21:22 51.4 °F 43.2 °F 30.24 in North 1.0 mph 3.0 mph 73 % 0.00 in
21:23 51.6 °F 43.3 °F 30.24 in NNW 2.0 mph 3.0 mph 73 % 0.00 in
21:26 51.6 °F 43.0 °F 30.24 in NNW 1.0 mph 5.0 mph 72 % 0.00 in
21:31 51.6 °F 43.0 °F 30.25 in NW 2.0 mph 5.0 mph 72 % 0.00 in
21:36 51.6 °F 42.4 °F 30.24 in NW 1.0 mph 5.0 mph 71 % 0.00 in
21:41 51.6 °F 42.4 °F 30.24 in NW 4.0 mph 4.0 mph 71 % 0.00 in
21:46 51.6 °F 42.4 °F 30.25 in NW 1.0 mph 5.0 mph 71 % 0.00 in
21:51 51.6 °F 42.4 °F 30.25 in NW 2.0 mph 6.0 mph 71 % 0.00 in
21:56 51.4 °F 42.4 °F 30.25 in NNW 2.0 mph 6.0 mph 71 % 0.00 in
22:02 51.4 °F 42.4 °F 30.25 in NNW 3.0 mph 6.0 mph 71 % 0.00 in
22:12 51.1 °F 42.1 °F 30.24 in NNW 1.0 mph 5.0 mph 71 % 0.00 in
22:17 51.1 °F 42.1 °F 30.25 in NW 2.0 mph 5.0 mph 71 % 0.00 in
22:22 50.9 °F 41.9 °F 30.24 in NW 3.0 mph 5.0 mph 71 % 0.00 in
22:27 50.7 °F 41.4 °F 30.24 in NW 2.0 mph 5.0 mph 70 % 0.00 in
22:37 50.5 °F 41.5 °F 30.24 in NNW 3.0 mph 4.0 mph 71 % 0.00 in
22:42 50.4 °F 41.4 °F 30.24 in North 1.0 mph 3.0 mph 71 % 0.00 in
22:47 50.2 °F 41.2 °F 30.24 in Calm   3.0 mph 71 % 0.00 in
22:57 49.8 °F 40.8 °F 30.23 in Calm   2.0 mph 71 % 0.00 in
23:02 49.6 °F 41.0 °F 30.23 in NW 1.0 mph 2.0 mph 72 % 0.00 in
23:07 49.5 °F 40.8 °F 30.24 in NW 1.0 mph 2.0 mph 72 % 0.00 in
23:12 49.5 °F 40.8 °F 30.24 in NNW 1.0 mph 3.0 mph 72 % 0.00 in
23:17 49.5 °F 40.8 °F 30.24 in North 1.0 mph 3.0 mph 72 % 0.00 in
23:22 49.3 °F 40.6 °F 30.24 in Calm   3.0 mph 72 % 0.00 in
23:27 49.1 °F 40.5 °F 30.24 in NNW 1.0 mph 2.0 mph 72 % 0.00 in
23:32 48.9 °F 40.3 °F 30.24 in Calm   2.0 mph 72 % 0.00 in
23:37 48.7 °F 40.1 °F 30.23 in NW 1.0 mph 2.0 mph 72 % 0.00 in
23:42 48.7 °F 40.5 °F 30.23 in Calm   2.0 mph 73 % 0.00 in
23:47 48.4 °F 40.1 °F 30.23 in Calm   1.0 mph 73 % 0.00 in
23:52 48.0 °F 40.1 °F 30.22 in NW 1.0 mph 1.0 mph 74 % 0.00 in
23:57 47.8 °F 40.3 °F 30.22 in Calm   1.0 mph 75 % 0.00 in
Spring, Texas: Villages of Bridgestone
Compliments of Weather Underground - 2.25 mb

Script developed by  Jim McMurry - jmcmurry@mwt.net Adapted for the template by  Wim van der Kuil - Leuven-Template.eu

You find our weather info also at:

UK Metoffice

WeatherCloud

Weather Underground

Mid-South Weather Network

AWEKAS

Citizen Weather Observer Program (CWOP)

HAMweather, WeatherForYou, PWS Weather

Equipment we use:

Weather-station
Davis Vantage Vue

Weather-program
Meteohub

Weather-server
Debian 7.9 x86 (Guest)

Provider
DreamHost

Davis Vantage Vue

Meteohub

Debian 7.9 x86 (Guest)

DreamHost